Find Starlink 5705

NORAD ID: 55472 Int'l Des: 2023-015 Owner: SPXS Country: US Constellation: starlink operational
LEOCIRCULAR

Live Position

Loading 3D Globe...

About Starlink 5705

Description loading...

Upcoming Passes

Passes for default location (London). Set your location on the main map for personalized predictions.

Altitude History

Loading altitude history...

Two-Line Element Set

1 55472U 23015Z 26107.03603364 .00000602 00000-0 49779-4 0 9993
2 55472 43.0017 103.6679 0001274 271.3414 88.7285 15.09919907176684
Epoch: Apr 17, 2026 • Age: 12 hours

Current Status

Altitude 539.7 km
Velocity 7.59 km/s
Sub-Earth Point -17.10°S, 98.85°W
Launch Date Feb 2, 2023
Age 3.2 years
Type internet

Technical Details

Classification Payload
Mass 305.00 kg
Dry Mass 290.00 kg
Total Mass 305.00 kg
Length 0.20 m
Diameter 2.80 m
Span 9.00 m
Shape Box + pan
Manufacturer SPXS
Bus Type Starlink
Phase Status In Orbit
Owner/State SPXS/US

Most Searched